星链-3779 (STARLINK-3779 )

导读 | 星芒AI

STARLINK-3779 是 SpaceX 星链计划中的一颗低轨通信卫星,属于第 11 批星链卫星(Batch 11B)。该卫星于 2023 年 9 月 29 日由猎鹰 9 号火箭从美国卡纳维拉尔角发射升空,部署在约 550 公里的轨道高度,用于提供全球宽带互联网服务。作为星链星座的一部分,STARLINK-3779 采用先进推进系统和激光通信技术,提高网络连接速度与稳定性,支持偏远地区互联网接入。

基本信息
目录编号:
52281
目录名称:
STARLINK-3779
国际标识:
2022-041W
轨道中心:
EARTH
卫星名称:
星链-3779
卫星全名:
星链-3779 (STARLINK-3779 )
卫星状态:
在轨 (已飞行1293 天)
发射日期:
2022-04-21 UTC
国别 :
美国 (US)
星等 :
--
轨道信息
数据来源 国际轨道数据 AOE轨道数据
星历时间 2025-11-04T14:43:08+0800
12小时前
查看轨道信息
2025-11-01T13:00:00+0800
3天前
查看轨道信息
半长轴 6917.877km 6917.887km
偏心率 0.0001617 0.0001213
轨道倾角 53.218° 53.221°
近地点辐角 85.874° 76.735°
升交点赤经 312.107° 325.899°
平近点角 274.244° 149.829°
近地点 538.623km 538.912km
远地点 540.861km 540.592km
周期 95.437分钟 95.438分钟
每日圈数 15.088413 15.088381
详细信息
固有亮度:
5
最大亮度:
2.5
卫星平台:
Starlink v1.5
覆盖范围:
全球
运营商:
太空探索技术公司
运营商所在国:
美国
制造商(研发单位):
太空探索技术公司
制造商所在国:
美国
使用方式:
暂无
卫星简介
星链(Starlink)计划是由太空探索技术公司(SpaceX)提出的一个巨型低轨卫星互联网星座项目,计划在2019年至2024年间在太空搭建由约1.2万颗卫星组成的“星链”网络,其中1584颗将部署在地球上空550千米处的近地轨道,并从2020年开始工作。该卫星仍在工作。
2D轨道图
3D轨道图
轨道高度分析图
轨道倾角分析图
轨道综合分析图
查看轨道综合分析图